Location: ????????
(41.2031°N, 22.5756°E)
Time: 06:13:20
(UTC+00:00)

SL-16 R/B - Pass Details

Date: 01 December 2020
Orbit: 841 x 849 km, 71.0° (Epoch: 20 January)

Event Time Altitude Azimuth Distance (km) Brightness Sun altitude
Rises 16:52:04 0° 246° (WSW) 3,388 6.8 -20.3°
Reaches altitude 10° 16:55:12 10° 263° (W) 2,457 5.8 -20.9°
Maximum altitude 16:59:13 20° 309° (NW) 1,867 4.4 -21.6°
Drops below altitude 10° 17:03:16 10° 355° (N) 2,466 4.6 -22.3°
Enters shadow 17:05:16 - 8° (N) 3,037 4.9 -22.7°
